sat.trackr.live / text

‹ back to catalog

2024-174B

NORAD 61239 · 2024-174B

PAYLOAD ACTIVE UNKNOWN

§ Identity

Operator
Country
PRC
Launch date
2024-09-24
Launch site
JSC
Launch vehicle
Mass (kg)
RCS (m²)

External: N2YO · Heavens-Above · Gunter

§ Orbital elements

Epoch: 2026-05-25T04:40:14.277216Z

Period
95.36 min
Inclination
97.4483°
Eccentricity
0.0021416
Mean motion
15.10023559 rev/d
Perigee alt
521.3 km
Apogee alt
550.9 km
Semi-major
6,914.3 km
B*
1.8780e-4
RAAN
149.2529°
Arg perigee
13.4842°
Mean anomaly
346.6955°
Rev number
9,192

§ Raw data

2024-174B1 61239U 24174B   26145.19460969  .00003006  00000+0  18780-3 0  99962 61239  97.4483 149.2529 0021416  13.4842 346.6955 15.10023559 91926

JSON: /api/v1/satellites/61239 · /tle

For live sub-satellite position, see the globe view (requires WebGL).

§ Visibility from observer

Set your observer location to see the next 7 days of passes ≥ 10°. The values pass through the URL so the page stays shareable.

No JS? Fill the form by hand. The geolocation button needs JavaScript.